DW2802 Ogijares ES current weather conditions

sailwx.info

Wind from 069

Air temperature 16.1° C
Dewpoint 6.2° C

Last reported at 2014-Oct-21 02:46 UTC.
Time now 2014-Oct-21 03:46 UTC

Location: N 37°07' W 003°36'.
View on Google Maps.

See reports from other nearby stations

  
Tides and Currents Weather Stations Pressure Air Temp Water Temp Dewpoint Dewpoint Depression Visibility Wind Speed Wind Dir Waves Ship Positions
date/time (UTC)wind fromknots sea level pressurealtimeterstation pressurevisibilityair tempwater tempwave heightnotes
2014-Oct-21 02:46 069 16.1
2014-Oct-21 02:31 069 16.1
2014-Oct-21 02:16 069 16.7
2014-Oct-21 02:01 069 16.7
2014-Oct-21 01:46 069 16.7
2014-Oct-21 01:31 069 16.1
2014-Oct-21 01:16 067 16.7
2014-Oct-21 01:01 067 16.7
2014-Oct-21 00:46 067 16.7
2014-Oct-21 00:31 067 17.2
2014-Oct-21 00:16 067 17.2
2014-Oct-21 00:01 067 17.2
2014-Oct-20 23:46 065 17.2
2014-Oct-20 23:31 065 17.2
2014-Oct-20 23:16 065 17.2
2014-Oct-20 23:00 065 17.2
2014-Oct-20 22:45 065 17.8
2014-Oct-20 22:30 065 17.8
2014-Oct-20 22:15 065 18.3
2014-Oct-20 22:00 065 18.3
2014-Oct-20 21:45 065 18.3
2014-Oct-20 21:30 065 18.9
2014-Oct-20 21:15 065 18.9
2014-Oct-20 21:00 065 18.9
2014-Oct-20 20:46 065 19.4
2014-Oct-20 20:30 065 20.0
2014-Oct-20 20:15 065 21.1
2014-Oct-20 20:00 065 21.1
2014-Oct-20 19:45 065 21.1
2014-Oct-20 19:30 065 21.1
2014-Oct-20 19:15 065 21.7
2014-Oct-20 19:01 065 22.2
2014-Oct-20 18:45 065 22.8
2014-Oct-20 18:30 065 23.3
2014-Oct-20 18:15 063 2 gusting 5 23.3
2014-Oct-20 18:00 134 1 gusting 3 23.3
2014-Oct-20 17:45 167 2 gusting 4 23.9
2014-Oct-20 17:30 194 1 gusting 5 25.0
2014-Oct-20 17:15 192 1 gusting 4 25.6
2014-Oct-20 17:00 192 26.7
2014-Oct-20 16:45 169 2 gusting 6 26.7
2014-Oct-20 16:30 184 4 gusting 6 27.2
2014-Oct-20 16:15 180 2 gusting 6 26.7
2014-Oct-20 16:00 194 3 gusting 7 26.7
2014-Oct-20 15:45 175 4 gusting 7 27.8
2014-Oct-20 15:30 165 5 gusting 8 27.8
2014-Oct-20 15:15 165 7 gusting 10 27.8
2014-Oct-20 15:00 202 1 gusting 10 27.8
2014-Oct-20 14:45 187 4 gusting 9 28.3
2014-Oct-20 14:30 178 4 gusting 13 28.9
2014-Oct-20 14:15 184 3 gusting 8 28.9
2014-Oct-20 14:00 178 5 gusting 9 28.9
2014-Oct-20 13:45 153 3 gusting 8 28.9
2014-Oct-20 13:30 205 2 gusting 9 28.9
2014-Oct-20 13:15 197 3 gusting 6 28.9
2014-Oct-20 13:00 168 6 gusting 12 28.9
2014-Oct-20 12:45 211 4 gusting 6 28.3
2014-Oct-20 12:30 177 28.3
2014-Oct-20 12:15 047 0 gusting 3 27.8
2014-Oct-20 12:00 037 27.8
2014-Oct-20 11:45 011 27.2
2014-Oct-20 11:30 015 1 gusting 4 26.7
2014-Oct-20 11:15 059 25.6
2014-Oct-20 11:00 034 3 gusting 5 25.0
2014-Oct-20 10:44 043 25.0
2014-Oct-20 10:29 044 24.4
2014-Oct-20 10:14 044 23.3
2014-Oct-20 09:59 024 1 gusting 6 22.8
2014-Oct-20 09:44 333 21.7
2014-Oct-20 09:29 202 22.8
2014-Oct-20 09:14 204 22.2
2014-Oct-20 08:59 204 20.6
2014-Oct-20 08:44 204 19.4
2014-Oct-20 08:29 180 18.9
2014-Oct-20 08:14 158 0 gusting 4 18.3
2014-Oct-20 07:59 154 17.2
2014-Oct-20 07:44 153 16.7
2014-Oct-20 07:29 153 16.1
2014-Oct-20 07:14 153 15.6
2014-Oct-20 06:59 153 2 gusting 5 15.6
2014-Oct-20 06:43 154 16.1
2014-Oct-20 06:28 155 16.1
2014-Oct-20 06:13 155 16.1
2014-Oct-20 05:58 154 16.7
2014-Oct-20 05:43 145 16.7
2014-Oct-20 05:28 140 16.1
2014-Oct-20 05:13 135 16.1
2014-Oct-20 04:58 135 16.1
2014-Oct-20 04:43 134 16.1
2014-Oct-20 04:28 153 16.7
2014-Oct-20 04:13 153 16.7
2014-Oct-20 03:58 153 16.7
2014-Oct-20 03:43 153 17.2
2014-Oct-20 03:28 153 17.8
2014-Oct-20 03:13 188 16.7
2014-Oct-20 02:58 161 0 gusting 5 17.2
2014-Oct-20 02:43 072 17.8
2014-Oct-20 02:28 068 18.3
2014-Oct-20 02:13 128 17.8
2014-Oct-20 01:58 130 17.8
2014-Oct-20 01:43 109 17.8
2014-Oct-20 01:28 144 17.8
2014-Oct-20 01:14 119 18.3
2014-Oct-20 00:59 138 17.8
2014-Oct-20 00:43 138 17.8
2014-Oct-20 00:28 138 17.8
2014-Oct-20 00:13 119 18.3
2014-Oct-19 23:58 036 18.9
2014-Oct-19 23:43 271 18.3
2014-Oct-19 23:28 115 18.9
2014-Oct-19 23:13 115 18.9
2014-Oct-19 22:58 114 18.9
2014-Oct-19 22:43 167 18.9
2014-Oct-19 22:28 168 19.4
2014-Oct-19 22:13 169 19.4
2014-Oct-19 21:58 169 20.0
2014-Oct-19 21:43 169 2 gusting 5 20.0
2014-Oct-19 21:28 174 0 gusting 4 20.6
2014-Oct-19 21:12 111 21.1
2014-Oct-19 20:57 111 21.1
2014-Oct-19 20:42 088 21.7
2014-Oct-19 20:27 088 21.7
2014-Oct-19 20:12 090 21.7
2014-Oct-19 19:57 161 21.7
2014-Oct-19 19:42 261 22.2
2014-Oct-19 19:27 261 23.3
2014-Oct-19 19:12 261 1 gusting 6 23.9
2014-Oct-19 18:57 171 3 gusting 5 25.0
2014-Oct-19 18:42 188 1 gusting 7 26.1
2014-Oct-19 18:27 117 2 gusting 7 26.1
2014-Oct-19 18:12 127 3 gusting 7 26.1
2014-Oct-19 17:57 165 26.1
2014-Oct-19 17:42 140 5 gusting 10 26.7
2014-Oct-19 17:27 113 2 gusting 7 26.7
2014-Oct-19 17:12 120 5 gusting 9 27.2
2014-Oct-19 16:57 113 5 gusting 11 27.8
2014-Oct-19 16:42 117 7 gusting 20 28.3
2014-Oct-19 16:27 140 6 gusting 11 28.3
2014-Oct-19 16:12 119 5 gusting 15 28.3
2014-Oct-19 15:57 144 4 gusting 14 27.8
2014-Oct-19 15:42 159 3 gusting 12 27.8
2014-Oct-19 15:27 147 12 gusting 19 28.3
2014-Oct-19 15:12 121 8 gusting 18 28.9
2014-Oct-19 14:57 142 6 gusting 15 29.4
2014-Oct-19 14:42 181 2 gusting 11 29.4
2014-Oct-19 14:27 171 5 gusting 13 29.4
2014-Oct-19 14:12 160 5 gusting 15 28.9
2014-Oct-19 13:57 128 7 gusting 17 29.4
2014-Oct-19 13:42 167 1 gusting 13 28.9
2014-Oct-19 13:27 141 12 gusting 20 29.4
2014-Oct-19 13:12 164 6 gusting 18 29.4
2014-Oct-19 12:57 182 11 gusting 17 29.4
2014-Oct-19 12:42 135 6 gusting 21 28.9
2014-Oct-19 12:27 147 5 gusting 13 28.3
2014-Oct-19 12:12 059 9 gusting 15 28.3
2014-Oct-19 11:57 062 0 gusting 9 27.8
2014-Oct-19 11:42 092 27.2
2014-Oct-19 11:27 337 0 gusting 12 26.7
2014-Oct-19 11:12 322 4 gusting 11 26.1
2014-Oct-19 10:57 255 4 gusting 8 25.0
2014-Oct-19 10:42 345 2 gusting 6 25.0
2014-Oct-19 10:27 342 24.4
2014-Oct-19 10:11 285 1 gusting 6 23.9
2014-Oct-19 09:56 005 1 gusting 6 23.3
2014-Oct-19 09:41 350 1 gusting 6 22.8
2014-Oct-19 09:26 040 22.8
2014-Oct-19 09:11 042 22.2
2014-Oct-19 08:56 043 0 gusting 4 22.2
2014-Oct-19 08:41 050 21.7
2014-Oct-19 08:26 121 20.6
2014-Oct-19 08:11 171 19.4
2014-Oct-19 07:56 155 18.9
2014-Oct-19 07:41 096 18.3
2014-Oct-19 07:26 094 17.8
2014-Oct-19 07:11 115 17.2
2014-Oct-19 06:56 090 17.2
2014-Oct-19 06:41 195 17.2
2014-Oct-19 06:26 195 16.7
2014-Oct-19 06:11 193 2 gusting 5 16.7
2014-Oct-19 05:56 157 16.7
2014-Oct-19 05:41 153 16.7
2014-Oct-19 05:26 155 16.7
2014-Oct-19 05:11 155 16.1
2014-Oct-19 04:56 155 16.7
2014-Oct-19 04:41 155 16.7
2014-Oct-19 04:26 153 17.2
2014-Oct-19 04:11 153 16.7
2014-Oct-19 03:55 153 16.7
2014-Oct-19 03:40 153 16.7
2014-Oct-19 03:25 147 16.7
2014-Oct-19 03:10 147 17.2